ZKPCA NZNE-NZKK

Flight info

Callsign ZKPCA
Flight time 1h 27m
Altitude 4000
Route DCT MHED1 DCT BHEAD DCT OPON1 DCT PQURY DCT
Aircraft C172/L-V/N

Departure

Time 2026-04-11 11:29
Airport North Shore Aerodrome (NZNE)

Arrival

Time 2026-04-11 12:56
Airport Kerikeri Airport (NZKK)
Time Latitude Longitude Altitude Speed Heading
2026-04-11 11:24 -36.65899 174.65274 202 ft 7 kts 228°
2026-04-11 11:24 -36.65861 174.65220 189 ft 14 kts 89°
2026-04-11 11:24 -36.65764 174.65370 195 ft 26 kts 75°
2026-04-11 11:25 -36.65652 174.65435 200 ft 19 kts 11°
2026-04-11 11:25 -36.65578 174.65362 199 ft 3 kts 225°
2026-04-11 11:25 -36.65566 174.65344 193 ft 5 kts 59°
2026-04-11 11:25 -36.65568 174.65354 193 ft 0 kts 124°
2026-04-11 11:26 -36.65575 174.65371 193 ft 9 kts 109°
2026-04-11 11:26 -36.65590 174.65434 191 ft 0 kts 104°
2026-04-11 11:27 -36.65598 174.65467 194 ft 5 kts 103°
2026-04-11 11:28 -36.65629 174.65608 193 ft 37 kts 105°
2026-04-11 11:28 -36.65715 174.66037 243 ft 59 kts 104°
2026-04-11 11:28 -36.65775 174.66567 421 ft 64 kts 106°
2026-04-11 11:28 -36.65831 174.67139 543 ft 68 kts 107°
2026-04-11 11:29 -36.65948 174.68276 977 ft 63 kts 104°
2026-04-11 11:29 -36.65982 174.68805 1135 ft 59 kts 97°
2026-04-11 11:29 -36.66001 174.69307 1398 ft 58 kts 95°
2026-04-11 11:30 -36.65983 174.69801 1716 ft 54 kts 101°
2026-04-11 11:30 -36.65964 174.70246 1891 ft 50 kts 104°
2026-04-11 11:30 -36.65952 174.70675 2054 ft 47 kts 107°
2026-04-11 11:30 -36.66251 174.70725 2285 ft 78 kts 170°
2026-04-11 11:31 -36.66553 174.69916 2319 ft 133 kts 288°
2026-04-11 11:31 -36.65892 174.69079 2181 ft 149 kts 330°
2026-04-11 11:31 -36.65182 174.68205 2434 ft 140 kts 326°
2026-04-11 11:31 -36.64552 174.67316 2559 ft 128 kts 326°
2026-04-11 11:32 -36.64019 174.66481 2553 ft 117 kts 319°
2026-04-11 11:32 -36.63515 174.65629 2572 ft 127 kts 320°
2026-04-11 11:32 -36.62904 174.64894 2754 ft 114 kts 345°
2026-04-11 11:32 -36.62181 174.64797 3020 ft 104 kts 15°
2026-04-11 11:33 -36.61471 174.64706 3232 ft 101 kts 22°
2026-04-11 11:33 -36.60911 174.64810 3290 ft 61 kts 96°
2026-04-11 11:33 -36.61416 174.65064 3158 ft 99 kts 143°
2026-04-11 11:33 -36.62103 174.65402 2768 ft 111 kts 139°
2026-04-11 11:34 -36.62579 174.65928 2514 ft 74 kts 110°
2026-04-11 11:34 -36.62422 174.66405 2393 ft 54 kts 110°
2026-04-11 11:34 -36.62847 174.66617 2053 ft 79 kts 150°
2026-04-11 11:34 -36.63388 174.66711 1578 ft 83 kts 152°
2026-04-11 11:35 -36.63883 174.66711 1104 ft 67 kts 166°
2026-04-11 11:35 -36.64341 174.66575 817 ft 68 kts 169°
2026-04-11 11:35 -36.64795 174.66392 552 ft 72 kts 178°
2026-04-11 11:35 -36.65242 174.66046 299 ft 79 kts 196°
2026-04-11 11:36 -36.65572 174.65617 197 ft 39 kts 223°
2026-04-11 11:36 -36.65707 174.65421 202 ft 26 kts 223°
2026-04-11 11:36 -36.65782 174.65304 199 ft 8 kts 241°
2026-04-11 11:36 -36.65857 174.65256 199 ft 34 kts 196°
2026-04-11 11:37 -36.65385 174.65852 216 ft 0 kts 133°
2026-04-11 11:37 -36.65415 174.65842 204 ft 0 kts 226°
2026-04-11 11:37 -36.65422 174.65833 202 ft 2 kts 221°
2026-04-11 11:37 -36.65452 174.65739 196 ft 25 kts 258°
2026-04-11 11:38 -36.65565 174.65542 197 ft 30 kts 233°
2026-04-11 11:38 -36.65650 174.65429 202 ft 7 kts 317°
2026-04-11 11:38 -36.65645 174.65424 201 ft 0 kts 321°
2026-04-11 11:39 -36.65616 174.65440 205 ft 10 kts 33°
2026-04-11 11:39 -36.65601 174.65471 200 ft 0 kts 86°
2026-04-11 11:39 -36.65617 174.65557 193 ft 30 kts 104°
2026-04-11 11:39 -36.65700 174.65945 243 ft 56 kts 106°
2026-04-11 11:40 -36.65703 174.66420 467 ft 64 kts 57°
2026-04-11 11:40 -36.65221 174.66240 553 ft 100 kts 319°
2026-04-11 11:40 -36.64773 174.65560 715 ft 108 kts 318°
2026-04-11 11:40 -36.64332 174.64790 933 ft 111 kts 294°
2026-04-11 11:41 -36.63949 174.63979 1165 ft 95 kts 342°
2026-04-11 11:41 -36.63643 174.64147 1159 ft 59 kts 81°
2026-04-11 11:41 -36.63272 174.64142 1186 ft 124 kts 311°
2026-04-11 11:41 -36.62733 174.63256 1394 ft 109 kts 313°
2026-04-11 11:42 -36.62194 174.62311 1294 ft 135 kts 326°
2026-04-11 11:42 -36.61565 174.61762 1348 ft 98 kts
2026-04-11 11:42 -36.60981 174.61424 1412 ft 88 kts
2026-04-11 11:42 -36.60459 174.61068 1400 ft 85 kts
2026-04-11 11:43 -36.59962 174.60700 1407 ft 84 kts 357°
2026-04-11 11:43 -36.59584 174.60276 534 ft 58 kts 237°
2026-04-11 11:43 -36.59211 174.59546 800 ft 139 kts 304°
2026-04-11 11:43 -36.58792 174.58411 756 ft 144 kts 277°
2026-04-11 11:44 -36.59043 174.57546 1102 ft 72 kts 165°
2026-04-11 11:44 -36.58826 174.57746 1066 ft 96 kts 355°
2026-04-11 11:44 -36.58312 174.57009 887 ft 141 kts 285°
2026-04-11 11:44 -36.58189 174.55825 941 ft 133 kts 267°
2026-04-11 11:45 -36.58257 174.54657 912 ft 126 kts 245°
2026-04-11 11:45 -36.58489 174.53611 945 ft 125 kts 229°
2026-04-11 11:45 -36.59045 174.52856 882 ft 129 kts 210°
2026-04-11 11:45 -36.59477 174.51743 702 ft 142 kts 245°
2026-04-11 11:46 -36.59456 174.50547 803 ft 126 kts 243°
2026-04-11 11:46 -36.59174 174.49545 589 ft 139 kts 354°
2026-04-11 11:46 -36.58355 174.49074 869 ft 119 kts 346°
2026-04-11 11:46 -36.57634 174.48635 947 ft 115 kts 354°
2026-04-11 11:47 -36.56826 174.48317 1021 ft 125 kts 346°
2026-04-11 11:47 -36.56019 174.47915 1055 ft 121 kts 357°
2026-04-11 11:47 -36.55728 174.47208 657 ft 68 kts 54°
2026-04-11 11:47 -36.55273 174.47802 612 ft 98 kts 51°
2026-04-11 11:48 -36.55043 174.48341 736 ft 53 kts 138°
2026-04-11 11:48 -36.55415 174.47962 812 ft 100 kts 235°
2026-04-11 11:48 -36.55407 174.47042 919 ft 112 kts 270°
2026-04-11 11:48 -36.55324 174.45994 852 ft 130 kts 263°
2026-04-11 11:49 -36.55346 174.44934 965 ft 99 kts 203°
2026-04-11 11:49 -36.55828 174.44823 1164 ft 62 kts 163°
2026-04-11 11:49 -36.55909 174.44806 1287 ft 39 kts 138°
2026-04-11 11:49 -36.55925 174.44811 952 ft 38 kts 132°
2026-04-11 11:50 -36.56292 174.44924 1305 ft 59 kts 138°
2026-04-11 11:50 -36.56719 174.45233 1281 ft 79 kts 135°
2026-04-11 11:50 -36.57208 174.45587 1420 ft 80 kts 138°
2026-04-11 11:50 -36.57669 174.45910 1643 ft 75 kts 134°
2026-04-11 11:51 -36.58109 174.46286 1796 ft 77 kts 127°
2026-04-11 11:51 -36.58478 174.46742 2013 ft 73 kts 123°
2026-04-11 11:51 -36.58816 174.47206 2161 ft 71 kts 121°
2026-04-11 11:51 -36.59135 174.47670 2229 ft 70 kts 121°
2026-04-11 11:52 -36.59448 174.48133 2326 ft 70 kts 119°
2026-04-11 11:52 -36.59751 174.48608 2484 ft 70 kts 118°
2026-04-11 11:52 -36.60025 174.49103 2624 ft 75 kts 113°
2026-04-11 11:52 -36.60271 174.49697 2625 ft 77 kts 110°
2026-04-11 11:53 -36.60451 174.50330 2618 ft 79 kts 102°
2026-04-11 11:53 -36.60587 174.50996 2608 ft 77 kts 103°
2026-04-11 11:53 -36.60664 174.51641 2673 ft 75 kts 92°
2026-04-11 11:53 -36.60591 174.52319 2686 ft 83 kts 87°
2026-04-11 11:54 -36.60643 174.53077 2358 ft 101 kts 100°
2026-04-11 11:54 -36.60774 174.53918 2159 ft 95 kts 105°
2026-04-11 11:54 -36.60878 174.54729 1989 ft 92 kts 93°
2026-04-11 11:54 -36.60869 174.55491 2125 ft 82 kts 90°
2026-04-11 11:55 -36.60786 174.56190 2274 ft 82 kts 87°
2026-04-11 11:55 -36.60637 174.56869 2395 ft 81 kts 81°
2026-04-11 11:55 -36.60425 174.57521 2520 ft 83 kts 78°
2026-04-11 11:55 -36.60176 174.58168 2617 ft 86 kts 76°
2026-04-11 11:56 -36.59902 174.58844 2636 ft 89 kts 76°
2026-04-11 11:56 -36.59469 174.59471 2633 ft 102 kts 53°
2026-04-11 11:56 -36.58767 174.59815 2637 ft 120 kts 28°
2026-04-11 11:56 -36.57877 174.59801 2636 ft 130 kts 19°
2026-04-11 11:57 -36.56979 174.59748 2668 ft 133 kts
2026-04-11 11:57 -36.56163 174.59877 2338 ft 109 kts 68°
2026-04-11 11:57 -36.56634 174.60335 2283 ft 114 kts 152°
2026-04-11 11:57 -36.57315 174.60574 2197 ft 89 kts 130°
2026-04-11 11:58 -36.57643 174.61089 2275 ft 69 kts 109°
2026-04-11 11:58 -36.57971 174.61503 2328 ft 73 kts 123°
2026-04-11 11:58 -36.58133 174.62067 2405 ft 76 kts 77°
2026-04-11 11:58 -36.57883 174.62727 2326 ft 91 kts 72°
2026-04-11 11:59 -36.57501 174.63426 2090 ft 106 kts 62°
2026-04-11 11:59 -36.56937 174.64047 2085 ft 112 kts 54°
2026-04-11 11:59 -36.56243 174.64542 2168 ft 119 kts 39°
2026-04-11 11:59 -36.55464 174.64876 2237 ft 124 kts 31°
2026-04-11 12:00 -36.54681 174.65318 1248 ft 167 kts 34°
2026-04-11 12:00 -36.54210 174.66452 805 ft 145 kts 57°
2026-04-11 12:00 -36.53909 174.67519 1189 ft 100 kts 75°
2026-04-11 12:00 -36.53685 174.68306 1326 ft 102 kts 76°
2026-04-11 12:01 -36.53299 174.68959 1629 ft 96 kts 59°
2026-04-11 12:01 -36.52709 174.69419 1768 ft 108 kts 39°
2026-04-11 12:01 -36.51934 174.69190 2170 ft 147 kts 324°
2026-04-11 12:01 -36.51890 174.68030 2630 ft 112 kts 228°
2026-04-11 12:02 -36.52378 174.67123 2473 ft 141 kts 200°
2026-04-11 12:02 -36.52655 174.66997 2659 ft 68 kts 56°
2026-04-11 12:02 -36.52103 174.67520 938 ft 151 kts 62°
2026-04-11 12:02 -36.51738 174.68148 1335 ft 118 kts 71°
2026-04-11 12:03 -36.51629 174.68820 1193 ft 64 kts 110°
2026-04-11 12:03 -36.51510 174.69517 909 ft 115 kts 50°
2026-04-11 12:03 -36.50580 174.69777 503 ft 153 kts 22°
2026-04-11 12:03 -36.49814 174.70115 1021 ft 104 kts 36°
2026-04-11 12:04 -36.48946 174.70129 997 ft 129 kts 11°
2026-04-11 12:04 -36.48029 174.69942 1011 ft 139 kts
2026-04-11 12:04 -36.47058 174.69642 1009 ft 148 kts
2026-04-11 12:04 -36.46042 174.69267 969 ft 156 kts 348°
2026-04-11 12:05 -36.45074 174.69099 1276 ft 135 kts
2026-04-11 12:05 -36.44169 174.68758 1392 ft 139 kts
2026-04-11 12:05 -36.43247 174.68453 1353 ft 137 kts 349°
2026-04-11 12:05 -36.42348 174.68216 1468 ft 126 kts
2026-04-11 12:06 -36.41525 174.68076 1676 ft 114 kts 22°
2026-04-11 12:06 -36.40609 174.68070 1378 ft 147 kts
2026-04-11 12:06 -36.39629 174.67970 1248 ft 128 kts 45°
2026-04-11 12:06 -36.38791 174.68218 1317 ft 123 kts 24°
2026-04-11 12:07 -36.37989 174.68403 1292 ft 129 kts 28°
2026-04-11 12:07 -36.36957 174.68167 1155 ft 149 kts 14°
2026-04-11 12:07 -36.35964 174.68110 1050 ft 146 kts 17°
2026-04-11 12:07 -36.34950 174.68139 978 ft 139 kts 20°
2026-04-11 12:08 -36.34105 174.68099 948 ft 102 kts 21°
2026-04-11 12:08 -36.33443 174.68002 961 ft 85 kts 22°
2026-04-11 12:08 -36.32833 174.67968 971 ft 103 kts 17°
2026-04-11 12:08 -36.32026 174.67929 1075 ft 127 kts 22°
2026-04-11 12:09 -36.31061 174.67849 1091 ft 145 kts
2026-04-11 12:09 -36.30036 174.67769 917 ft 141 kts 10°
2026-04-11 12:09 -36.29154 174.67799 947 ft 119 kts 21°
2026-04-11 12:09 -36.28367 174.67793 948 ft 110 kts 19°
2026-04-11 12:10 -36.27575 174.67754 944 ft 116 kts 16°
2026-04-11 12:10 -36.26766 174.67767 933 ft 111 kts 20°
2026-04-11 12:10 -36.26006 174.67658 1112 ft 115 kts 355°
2026-04-11 12:10 -36.25273 174.67281 1210 ft 92 kts 18°
2026-04-11 12:11 -36.24709 174.67208 1286 ft 83 kts 29°
2026-04-11 12:11 -36.24146 174.67073 1471 ft 84 kts 15°
2026-04-11 12:11 -36.23613 174.66877 1627 ft 78 kts 21°
2026-04-11 12:11 -36.23007 174.66644 1680 ft 108 kts 359°
2026-04-11 12:12 -36.22293 174.66161 1685 ft 119 kts
2026-04-11 12:12 -36.21481 174.66108 1621 ft 123 kts 18°
2026-04-11 12:12 -36.20612 174.66048 1624 ft 129 kts 16°
2026-04-11 12:12 -36.19691 174.66027 1694 ft 135 kts 18°
2026-04-11 12:13 -36.18741 174.65973 1688 ft 138 kts 14°
2026-04-11 12:13 -36.17759 174.65766 1721 ft 146 kts
2026-04-11 12:13 -36.16766 174.65519 1738 ft 143 kts
2026-04-11 12:13 -36.15819 174.65249 1724 ft 139 kts
2026-04-11 12:14 -36.14859 174.64975 1742 ft 153 kts 350°
2026-04-11 12:14 -36.13895 174.64310 1731 ft 161 kts 344°
2026-04-11 12:14 -36.12910 174.63621 1730 ft 165 kts 344°
2026-04-11 12:14 -36.11893 174.62898 1719 ft 170 kts 341°
2026-04-11 12:15 -36.10838 174.62406 1708 ft 155 kts
2026-04-11 12:15 -36.09779 174.62100 1713 ft 160 kts
2026-04-11 12:15 -36.08714 174.61642 1707 ft 162 kts 357°
2026-04-11 12:15 -36.07645 174.61191 1687 ft 160 kts 357°
2026-04-11 12:16 -36.06605 174.60737 1683 ft 158 kts 356°
2026-04-11 12:16 -36.05575 174.60280 1652 ft 162 kts 359°
2026-04-11 12:16 -36.04487 174.59801 1587 ft 167 kts 355°
2026-04-11 12:16 -36.03391 174.59322 1518 ft 166 kts 354°
2026-04-11 12:17 -36.02314 174.58891 1462 ft 159 kts 355°
2026-04-11 12:17 -36.01279 174.58485 1364 ft 150 kts 356°
2026-04-11 12:17 -36.00308 174.58118 1254 ft 145 kts 358°
2026-04-11 12:17 -35.99352 174.57747 1167 ft 143 kts 356°
2026-04-11 12:18 -35.98399 174.57396 1076 ft 142 kts 354°
2026-04-11 12:18 -35.97459 174.57044 958 ft 140 kts 356°
2026-04-11 12:18 -35.95698 174.56395 913 ft 126 kts 353°
2026-04-11 12:19 -35.94852 174.56101 957 ft 130 kts 353°
2026-04-11 12:19 -35.93984 174.55818 1111 ft 127 kts 353°
2026-04-11 12:19 -35.93139 174.55531 1316 ft 128 kts 354°
2026-04-11 12:19 -35.92277 174.55182 1432 ft 136 kts 354°
2026-04-11 12:20 -35.91406 174.54827 1676 ft 128 kts 353°
2026-04-11 12:20 -35.90574 174.54485 1924 ft 128 kts 358°
2026-04-11 12:20 -35.89772 174.54013 2179 ft 129 kts 354°
2026-04-11 12:20 -35.88930 174.53460 2179 ft 144 kts 350°
2026-04-11 12:21 -35.88003 174.52956 2177 ft 146 kts 353°
2026-04-11 12:21 -35.87073 174.52476 2176 ft 147 kts 353°
2026-04-11 12:21 -35.86124 174.51977 2173 ft 149 kts 352°
2026-04-11 12:21 -35.85169 174.51440 2190 ft 155 kts 343°
2026-04-11 12:22 -35.84258 174.50711 2179 ft 154 kts 341°
2026-04-11 12:22 -35.83373 174.49968 2178 ft 153 kts 341°
2026-04-11 12:22 -35.82502 174.49244 2165 ft 152 kts 341°
2026-04-11 12:22 -35.81616 174.48592 2168 ft 146 kts 347°
2026-04-11 12:23 -35.80744 174.47974 2170 ft 144 kts 347°
2026-04-11 12:23 -35.79874 174.47373 2167 ft 142 kts 347°
2026-04-11 12:23 -35.79011 174.46802 2135 ft 136 kts 348°
2026-04-11 12:23 -35.78250 174.46271 2164 ft 121 kts 349°
2026-04-11 12:24 -35.77542 174.45713 2170 ft 122 kts 349°
2026-04-11 12:24 -35.76816 174.45153 2176 ft 125 kts 350°
2026-04-11 12:24 -35.76057 174.44587 2182 ft 133 kts 348°
2026-04-11 12:24 -35.75257 174.43998 2186 ft 134 kts 348°
2026-04-11 12:25 -35.74453 174.43408 2352 ft 133 kts 349°
2026-04-11 12:25 -35.73665 174.42810 2543 ft 133 kts 349°
2026-04-11 12:25 -35.72883 174.42198 2671 ft 133 kts 348°
2026-04-11 12:25 -35.72096 174.41590 2842 ft 137 kts 348°
2026-04-11 12:26 -35.71247 174.40963 2856 ft 147 kts 348°
2026-04-11 12:26 -35.70347 174.40317 2853 ft 156 kts 343°
2026-04-11 12:26 -35.69430 174.39561 2850 ft 159 kts 341°
2026-04-11 12:26 -35.68502 174.38807 2875 ft 158 kts 342°
2026-04-11 12:27 -35.67585 174.38062 2866 ft 158 kts 341°
2026-04-11 12:27 -35.66673 174.37316 2816 ft 157 kts 341°
2026-04-11 12:27 -35.65782 174.36586 2938 ft 146 kts 342°
2026-04-11 12:27 -35.64979 174.35887 3118 ft 141 kts 342°
2026-04-11 12:28 -35.64212 174.35260 3415 ft 117 kts
2026-04-11 12:28 -35.63628 174.35292 3511 ft 61 kts 68°
2026-04-11 12:28 -35.63485 174.35644 3705 ft 63 kts 52°
2026-04-11 12:28 -35.62853 174.35280 3924 ft 120 kts 342°
2026-04-11 12:29 -35.62203 174.34676 4120 ft 119 kts 342°
2026-04-11 12:29 -35.61557 174.34058 4280 ft 118 kts 343°
2026-04-11 12:29 -35.60924 174.33434 4436 ft 116 kts 344°
2026-04-11 12:29 -35.60400 174.32597 4546 ft 145 kts 279°
2026-04-11 12:30 -35.60709 174.31576 4728 ft 115 kts 194°
2026-04-11 12:30 -35.61269 174.30811 4845 ft 121 kts 196°
2026-04-11 12:30 -35.61900 174.30040 4854 ft 134 kts 196°
2026-04-11 12:30 -35.62577 174.29214 4831 ft 153 kts 213°
2026-04-11 12:31 -35.62906 174.27885 4821 ft 171 kts 263°
2026-04-11 12:31 -35.62574 174.26530 4822 ft 162 kts 312°
2026-04-11 12:31 -35.61786 174.25748 4826 ft 131 kts 355°
2026-04-11 12:31 -35.60943 174.25312 4840 ft 134 kts 355°
2026-04-11 12:32 -35.60077 174.24869 4833 ft 137 kts 353°
2026-04-11 12:32 -35.59214 174.24274 4827 ft 144 kts 345°
2026-04-11 12:32 -35.58346 174.23655 4831 ft 145 kts 345°
2026-04-11 12:32 -35.57480 174.23027 4827 ft 145 kts 344°
2026-04-11 12:33 -35.56629 174.22344 4839 ft 157 kts 324°
2026-04-11 12:33 -35.56346 174.21024 4876 ft 166 kts 245°
2026-04-11 12:33 -35.56965 174.20115 4878 ft 119 kts 169°
2026-04-11 12:33 -35.57646 174.20209 4857 ft 96 kts 139°
2026-04-11 12:34 -35.58298 174.20417 4849 ft 97 kts 139°
2026-04-11 12:34 -35.58940 174.20668 4840 ft 90 kts 130°
2026-04-11 12:34 -35.59233 174.21197 4848 ft 75 kts 105°
2026-04-11 12:34 -35.59320 174.21790 4859 ft 80 kts 65°
2026-04-11 12:35 -35.58620 174.21925 4845 ft 122 kts 17°
2026-04-11 12:35 -35.57967 174.22223 4808 ft 84 kts 65°
2026-04-11 12:35 -35.57673 174.22803 4821 ft 80 kts 70°
2026-04-11 12:35 -35.57369 174.23433 4584 ft 94 kts 69°
2026-04-11 12:36 -35.57030 174.24176 4156 ft 107 kts 69°
2026-04-11 12:36 -35.56640 174.25018 3631 ft 113 kts 69°
2026-04-11 12:36 -35.56307 174.25808 3348 ft 101 kts 83°
2026-04-11 12:36 -35.56460 174.26607 2977 ft 100 kts 117°
2026-04-11 12:37 -35.57099 174.27001 2798 ft 112 kts 155°
2026-04-11 12:37 -35.57869 174.26621 2796 ft 134 kts 198°
2026-04-11 12:37 -35.58364 174.25523 2792 ft 162 kts 241°
2026-04-11 12:37 -35.58274 174.24098 2791 ft 174 kts 285°
2026-04-11 12:38 -35.57577 174.22930 2793 ft 166 kts 329°
2026-04-11 12:38 -35.56640 174.22145 2818 ft 162 kts 334°
2026-04-11 12:38 -35.55699 174.21374 2816 ft 163 kts 334°
2026-04-11 12:38 -35.54758 174.20687 2825 ft 155 kts 345°
2026-04-11 12:39 -35.53791 174.20088 2825 ft 156 kts 345°
2026-04-11 12:39 -35.52835 174.19483 2894 ft 149 kts 333°
2026-04-11 12:39 -35.51902 174.18964 2838 ft 151 kts 344°
2026-04-11 12:39 -35.50947 174.18381 2815 ft 154 kts 345°
2026-04-11 12:40 -35.50034 174.17801 2811 ft 144 kts 338°
2026-04-11 12:40 -35.49238 174.17132 2801 ft 133 kts 337°
2026-04-11 12:40 -35.48519 174.16506 2801 ft 121 kts 338°
2026-04-11 12:40 -35.47863 174.15901 2812 ft 118 kts 337°
2026-04-11 12:41 -35.47218 174.15290 2807 ft 115 kts 338°
2026-04-11 12:41 -35.46651 174.14630 2727 ft 115 kts 317°
2026-04-11 12:41 -35.46303 174.14163 2697 ft 108 kts 323°
2026-04-11 12:41 -35.45796 174.13469 2783 ft 106 kts 315°
2026-04-11 12:42 -35.45275 174.12767 2850 ft 119 kts 323°
2026-04-11 12:42 -35.44719 174.12002 2869 ft 123 kts 323°
2026-04-11 12:42 -35.43977 174.10950 2826 ft 122 kts 321°
2026-04-11 12:43 -35.43048 174.09655 2958 ft 132 kts 324°
2026-04-11 12:43 -35.42340 174.08758 3010 ft 155 kts 322°
2026-04-11 12:43 -35.41556 174.07813 2937 ft 161 kts 321°
2026-04-11 12:43 -35.40761 174.06869 2909 ft 156 kts 323°
2026-04-11 12:44 -35.40013 174.05962 2890 ft 147 kts 320°
2026-04-11 12:44 -35.39314 174.05138 2909 ft 136 kts 322°
2026-04-11 12:44 -35.38638 174.04300 2898 ft 139 kts 321°
2026-04-11 12:44 -35.37968 174.03471 2899 ft 134 kts 326°
2026-04-11 12:45 -35.37342 174.02604 2912 ft 137 kts 325°
2026-04-11 12:45 -35.36771 174.01728 2892 ft 127 kts 322°
2026-04-11 12:45 -35.36214 174.00897 2900 ft 128 kts 322°
2026-04-11 12:45 -35.35636 174.00047 2919 ft 131 kts 323°
2026-04-11 12:46 -35.35029 173.99178 2923 ft 138 kts 323°
2026-04-11 12:46 -35.34391 173.98270 2917 ft 142 kts 321°
2026-04-11 12:46 -35.33734 173.97361 2911 ft 143 kts 322°
2026-04-11 12:46 -35.33083 173.96471 2907 ft 141 kts 322°
2026-04-11 12:47 -35.32418 173.95596 2908 ft 141 kts 322°
2026-04-11 12:47 -35.31737 173.94734 2902 ft 140 kts 323°
2026-04-11 12:47 -35.31070 173.93875 2897 ft 138 kts 323°
2026-04-11 12:47 -35.30411 173.93024 2893 ft 137 kts 323°
2026-04-11 12:48 -35.29765 173.92205 2881 ft 128 kts 324°
2026-04-11 12:48 -35.29164 173.91413 2879 ft 128 kts 322°
2026-04-11 12:48 -35.28559 173.90626 2885 ft 124 kts 321°
2026-04-11 12:48 -35.27914 173.89908 2884 ft 125 kts 322°
2026-04-11 12:49 -35.27274 173.89191 2889 ft 124 kts 322°
2026-04-11 12:49 -35.26641 173.88472 2881 ft 123 kts 320°
2026-04-11 12:49 -35.26017 173.87786 2879 ft 120 kts 317°
2026-04-11 12:49 -35.25390 173.87107 2810 ft 126 kts 317°
2026-04-11 12:50 -35.24675 173.86373 2569 ft 142 kts 332°
2026-04-11 12:50 -35.23757 173.85873 2341 ft 145 kts 345°
2026-04-11 12:50 -35.22796 173.85668 2169 ft 137 kts 360°
2026-04-11 12:50 -35.21826 173.85509 1884 ft 149 kts 358°
2026-04-11 12:51 -35.20777 173.85380 1548 ft 153 kts 356°
2026-04-11 12:51 -35.19741 173.85329 1290 ft 148 kts 360°
2026-04-11 12:51 -35.18774 173.85332 1240 ft 129 kts
2026-04-11 12:51 -35.18026 173.85702 1206 ft 108 kts 49°
2026-04-11 12:52 -35.17741 173.86451 1216 ft 90 kts 84°
2026-04-11 12:52 -35.17594 173.87134 1257 ft 79 kts 83°
2026-04-11 12:52 -35.17082 173.87494 1267 ft 111 kts 343°
2026-04-11 12:52 -35.16354 173.87221 1261 ft 110 kts 341°
2026-04-11 12:53 -35.15641 173.86972 1265 ft 104 kts 341°
2026-04-11 12:53 -35.14947 173.86716 1259 ft 104 kts 339°
2026-04-11 12:53 -35.14255 173.86471 1262 ft 103 kts 340°
2026-04-11 12:53 -35.13561 173.86245 1243 ft 103 kts 359°
2026-04-11 12:54 -35.13029 173.86601 1195 ft 77 kts 74°
2026-04-11 12:54 -35.13169 173.86959 1194 ft 51 kts 172°
2026-04-11 12:54 -35.13427 173.87098 1295 ft 50 kts 136°
2026-04-11 12:54 -35.13811 173.86983 1415 ft 54 kts 163°
2026-04-11 12:55 -35.13949 173.87283 1553 ft 53 kts 115°
2026-04-11 12:55 -35.14117 173.87142 1494 ft 124 kts 268°
2026-04-11 12:55 -35.13836 173.86221 1581 ft 121 kts 357°
2026-04-11 12:55 -35.13425 173.86666 1566 ft 83 kts 112°
2026-04-11 12:56 -35.13864 173.87142 1618 ft 86 kts 139°
2026-04-11 12:56 -35.14353 173.87524 1660 ft 83 kts 134°
2026-04-11 12:56 -35.14778 173.87898 1904 ft 41 kts 147°
2026-04-11 12:56 -35.15145 173.88128 1764 ft 74 kts 137°
2026-04-11 12:57 -35.15675 173.88313 1859 ft 75 kts 150°
2026-04-11 12:57 -35.16118 173.88336 2037 ft 73 kts 160°
2026-04-11 12:57 -35.16684 173.88404 1907 ft 89 kts 149°
2026-04-11 12:57 -35.17306 173.88623 1773 ft 107 kts 172°
2026-04-11 12:58 -35.18017 173.88298 1772 ft 97 kts 172°
2026-04-11 12:58 -35.18639 173.88364 1775 ft 87 kts 164°
2026-04-11 12:58 -35.19213 173.88417 1822 ft 79 kts 163°
2026-04-11 12:58 -35.19758 173.88462 1825 ft 85 kts 164°
2026-04-11 12:59 -35.20352 173.88616 1713 ft 84 kts 130°
2026-04-11 12:59 -35.20750 173.89149 1498 ft 89 kts 128°
2026-04-11 12:59 -35.21144 173.89707 1381 ft 76 kts 136°
2026-04-11 12:59 -35.21559 173.89923 1293 ft 62 kts 165°
2026-04-11 13:00 -35.21982 173.90017 1281 ft 66 kts 164°
2026-04-11 13:00 -35.22444 173.90153 1187 ft 72 kts 158°
2026-04-11 13:00 -35.22883 173.90287 1031 ft 60 kts 163°
2026-04-11 13:00 -35.23283 173.90434 865 ft 60 kts 163°
2026-04-11 13:01 -35.23681 173.90546 760 ft 57 kts 165°
2026-04-11 13:01 -35.24432 173.90789 696 ft 57 kts 165°
2026-04-11 13:01 -35.24849 173.90927 585 ft 64 kts 162°
2026-04-11 13:02 -35.25247 173.91051 518 ft 53 kts 160°
2026-04-11 13:02 -35.25527 173.91148 499 ft 29 kts 170°
2026-04-11 13:02 -35.25663 173.91180 488 ft 12 kts 166°
2026-04-11 13:02 -35.25833 173.91233 488 ft 42 kts 166°
2026-04-11 13:03 -35.26070 173.91244 480 ft 24 kts 177°
2026-04-11 13:03 -35.26193 173.91230 482 ft 11 kts 183°
2026-04-11 13:03 -35.26258 173.91217 479 ft 6 kts 198°
2026-04-11 13:03 -35.26275 173.91210 481 ft 2 kts 150°
2026-04-11 13:04 -35.26277 173.91216 481 ft 0 kts 85°
2026-04-11 13:15 -35.26263 173.91263 478 ft 3 kts 43°
2026-04-11 13:15 -35.26259 173.91266 477 ft 0 kts 21°
2026-04-11 13:15 -35.26238 173.91321 478 ft 11 kts 37°
2026-04-11 13:16 -35.26060 173.91311 479 ft 48 kts 345°
2026-04-11 13:16 -35.25587 173.91140 497 ft 90 kts
2026-04-11 13:16 -35.24987 173.90868 715 ft 93 kts 327°
2026-04-11 13:16 -35.24476 173.90318 821 ft 97 kts 308°
2026-04-11 13:17 -35.24631 173.89844 842 ft 77 kts 169°
2026-04-11 13:17 -35.24999 173.90130 931 ft 78 kts 90°
2026-04-11 13:17 -35.24976 173.90701 768 ft 36 kts 132°
2026-04-11 13:17 -35.25210 173.90638 1100 ft 123 kts 155°
2026-04-11 13:18 -35.25815 173.90830 1576 ft 68 kts 135°
2026-04-11 13:18 -35.26167 173.91325 634 ft 111 kts 49°
2026-04-11 13:18 -35.25943 173.91451 484 ft 13 kts 41°